CZ-6A DEB, 54266

Orbit data source: Space-Track

CZ-6A DEB, 54266 is space debris in SSO originally from a launch on Fri, 11 Nov 2022 UTC launched from the Taiyaun Space Center, China (TSC). Debris objects in space refer to the collection of defunct objects orbiting the Earth. Examples of debris include non-operational satellites, rocket bodies, and fragments generated from explosions, collisions, or faulty payload assembly.

Loading next visibility...
Identifier
54266, 2022-151H
Orbit
SSO
Country
Flag of CNCN / PRC
Related business
Manufacturer
SAST
Mission
Spacecraft
Bus & Motor
Unknown
Mass
Unknown
Launch date (UTC)
2022-11-11 (4 years ago)
Launch vehicle
Unknown
Launch site
Taiyaun Space Center, China (TSC)
Object type
Payload
Rocket body
Debris
Shape & HBR
Unknown shape, 0.1 m
Radar Cross Section
Medium (>0.1 m² and <1 m²)

Expand to show TLE details & history
Last TLE update: 2 days ago

TLE from 2 days ago
0 CZ-6A DEB
1 54266U 22151H   26171.07391266  .00000241  00000-0  34828-3 0  9990
2 54266  98.9960  40.8079 0410872  54.4596 309.4123 13.33359001175293
Epoch: 2026-06-20T01:46Z
TLE epoch observation values (Epoch: 2026-06-20T01:46:26.053Z)
Latitude
-0.00011°
Longitude
105.9056°
Altitude
948.779 km
Speed
7.469 km/s
True Right ascension
02h 43m 13s
True Declination
0° 00' 00"
Sunlit
Object was in daylight at epoch
Visualization orbit readout
Latitude
Unknown
Longitude
Unknown
Altitude
Unknown
Speed
Unknown
Apparent Right ascension
Unknown
Apparent Declination
Unknown
Sunlit
N/A
Visualization observer readout
Local Sidereal Time
21:46:19
Azimuth
Unknown
Elevation
Unknown
Doppler factor
Unknown
Orbital elements
Apogee altitude
1,439.948 km
Perigee altitude
822.856 km
Semi-major axis
7,509.539 km
Eccentricity
0.04109
Inclination
98.996°
RAAN
40.8079°
Arg. of periapsis
54.4596°
True anomaly
305.65499°
Mean anomaly
309.4123°
Eccentric anomaly
307.54579°
Mean motion
3.33521 °/min
Orbital period
107.94 mins
BSTAR
0.00034828
Loading maneuver chart data...
Computing Atmospheric mass density...

Documentation

Showing up to 5 results
|